KRAUCHNWS Weather Reports


time (UTC)temp
F
wind
direction
speed
knots
gust
knots
rain 1hr
in
rain 24hr
in
rain mn
in
humidity
%
barometer
mb
20260504213209 58 355 0.0 0.0 0.00 0.00 0.00 67 1010.3
20260504210209 59 26 1.7 0.0 0.00 0.00 0.00 64 1010.4
20260504203209 59 16 4.3 0.0 0.00 0.00 0.00 62 1010.3
20260504200209 60 341 7.0 0.0 0.00 0.00 0.00 59 1010.1
20260504193209 61 5 10.4 0.0 0.00 0.00 0.00 56 1010.1
20260504190209 62 355 4.3 0.0 0.00 0.00 0.00 55 1010.2
20260504183209 63 264 7.0 0.0 0.00 0.00 0.00 52 1010.9
20260504180214 64 251 5.2 0.0 0.00 0.00 0.00 50 1010.6
20260504173209 65 259 1.7 0.0 0.00 0.00 0.00 47 1010.3
20260504170210 66 260 2.6 0.0 0.00 0.00 0.00 43 1010.1
20260504160210 67 271 6.1 0.0 0.00 0.00 0.00 41 1010.0
20260504150210 68 309 1.7 0.0 0.00 0.00 0.00 35 1009.8
20260504140209 71 171 12.2 0.0 0.00 0.00 0.00 38 1010.2
20260504130215 71 34 5.2 0.0 0.00 0.00 0.00 38 1010.5
20260504120210 71 111 9.6 0.0 0.00 0.00 0.00 39 1010.9
20260504110210 69 26 6.1 0.0 0.00 0.00 0.00 31 1011.4
20260504100212 68 342 7.0 0.0 0.00 0.00 0.00 38 1011.9
20260504080210 64 22 4.3 0.0 0.00 0.00 0.00 47 1012.8
20260504070212 57 22 0.9 0.0 0.00 0.00 0.00 68 1013.1
20260504060212 50 114 0.0 0.0 0.00 0.00 0.00 79 1013.0
20260504050210 47 344 0.0 0.0 0.00 0.00 0.00 86 1012.9
20260504043211 47 319 1.7 0.0 0.00 0.00 0.00 86 1013.0
20260504040211 46 309 0.9 0.0 0.00 0.00 0.00 86 1013.1
20260504033211 47 131 0.9 0.0 0.00 0.00 0.00 85 1013.3
20260504030212 48 215 0.9 0.0 0.00 0.00 0.00 82 1013.4
20260504023211 50 343 0.9 0.0 0.00 0.00 0.00 80 1013.4
20260504020212 50 265 0.0 0.0 0.00 0.00 0.00 80 1013.3
20260504013211 51 265 0.0 0.0 0.00 0.00 0.00 79 1013.3
20260504010211 51 355 0.0 0.0 0.00 0.00 0.00 77 1013.1
20260504003210 52 310 0.9 0.0 0.00 0.00 0.00 74 1013.3
20260504000208 53 186 1.7 0.0 0.00 0.00 0.00 73 1013.5
20260503233209 53 144 1.7 0.0 0.00 0.00 0.00 71 1013.8
20260503230209 54 115 1.7 0.0 0.00 0.00 0.00 69 1014.0
20260503223210 54 140 2.6 0.0 0.00 0.00 0.00 66 1014.1